Home > Weather > Herat > Past weeks

Flag for Afghanistan Past Weather in Herat, Afghanistan — Yesterday and Last 2 Weeks

Now
70 °F

Clear.


Feels Like: 70 °F
Forecast: 72 / 101 °F
Wind: No wind

Location: Mashhad Airport

Current Time: Jun 29, 2016 at 6:37:39 AM

Latest Report: Jun 29, 2016 at 6:00 AM


Visibility: 10 mi

Pressure: 29.89 "Hg (26.81 "Hg at 937m altitude)

Humidity: 35%

Dew Point: 41 °F

Location of HeratLocation

Past Weather in Herat — Graph

°F

Herat Temperature Yesterday

Maximum temperature yesterday: 91 °F (at 3:00 PM)
Minimum temperature yesterday: 68 °F (at 5:30 AM)
Average temperature yesterday: 82 °F

High & Low Weather Summary for the Past Weeks

 TemperatureHumidityPressure
High95 °F (Jun 26, 2:00 PM)83% (Jun 14, 7:30 AM)30.15 "Hg (Jun 14, 7:30 AM)
Low61 °F (Jun 14, 7:00 AM)10% (Jun 20, 5:30 PM)29.86 "Hg (Jun 28, 6:00 PM)
Average78 °F28%30.01 "Hg
* Reported Jun 14 5:30 AM — Jun 29 5:30 AM, Herat, Weather by CustomWeather, © 2016

Note: Actual official high and low records may vary slightly from our data, if they occured in-between our weather recording intervals... More about our weather records

Advertising

Herat Weather History for the Previous 24 Hours

Scroll right to see more
 ConditionsComfort  
Time TempWeatherWind HumidityBarometerVisibility
5:30 AM
Wed, Jun 29
68 °FClear.5 mph38%29.89 "Hg10 mi
5:00 AM68 °FClear.No wind35%29.89 "Hg10 mi
4:30 AM70 °FClear.5 mph33%29.89 "Hg10 mi
4:00 AM68 °FClear.5 mph38%29.89 "Hg10 mi
3:30 AM70 °FClear.No wind31%29.89 "Hg10 mi
3:00 AM72 °FClear.5 mph27%29.89 "Hg10 mi
2:30 AM73 °FClear.5 mph25%29.89 "Hg10 mi
2:00 AM73 °FClear.5 mph25%29.89 "Hg10 mi
1:30 AM73 °FClear.7 mph25%29.89 "Hg10 mi
12:30 AM73 °FClear.5 mph25%29.92 "Hg10 mi
12:00 AM75 °FClear.5 mph25%29.92 "Hg10 mi
11:30 PM
Tue, Jun 28
75 °FClear.5 mph25%29.92 "Hg10 mi
11:00 PM75 °FClear.No wind22%29.92 "Hg10 mi
10:30 PM77 °FClear.5 mph21%29.89 "Hg10 mi
10:00 PM79 °FClear.7 mph20%29.89 "Hg10 mi
9:30 PM79 °FClear.7 mph20%29.89 "Hg10 mi
9:00 PM82 °FSunny.7 mph17%29.89 "Hg10 mi
8:30 PM82 °FSunny.9 mph16%29.89 "Hg10 mi
8:00 PM84 °FSunny.12 mph15%29.89 "Hg10 mi
7:30 PM88 °FSunny.14 mph13%29.89 "Hg10 mi
7:00 PM90 °FSunny.14 mph13%29.89 "Hg10 mi
6:30 PM90 °FSunny.12 mph14%29.89 "Hg10 mi
6:00 PM91 °FSunny.12 mph13%29.86 "Hg10 mi
5:30 PM91 °FSunny.12 mph13%29.89 "Hg10 mi
5:00 PM91 °FSunny.12 mph13%29.89 "Hg10 mi
4:30 PM91 °FSunny.7 mph13%29.89 "Hg10 mi
4:00 PM91 °FSunny.7 mph13%29.89 "Hg10 mi
3:30 PM91 °FSunny.14 mph13%29.89 "Hg10 mi
3:00 PM91 °FSunny.9 mph13%29.89 "Hg10 mi
2:30 PM90 °FSunny.5 mph14%29.92 "Hg10 mi
2:00 PM90 °FSunny.7 mph14%29.92 "Hg10 mi
1:30 PM90 °FSunny.9 mph15%29.92 "Hg10 mi
1:00 PM88 °FSunny.9 mph16%29.92 "Hg10 mi
12:30 PM86 °FSunny.5 mph17%29.95 "Hg10 mi
12:00 PM88 °FSunny.12 mph16%29.95 "Hg10 mi
11:30 AM86 °FSunny.14 mph17%29.95 "Hg10 mi
11:00 AM86 °FSunny.12 mph18%29.98 "Hg10 mi
10:30 AM84 °FSunny.9 mph19%29.98 "Hg10 mi
10:00 AM82 °FSunny.12 mph20%29.98 "Hg10 mi
9:30 AM82 °FSunny.7 mph21%29.98 "Hg10 mi
9:00 AM81 °FSunny.5 mph23%29.98 "Hg10 mi
8:30 AM82 °FSunny.7 mph20%29.98 "Hg10 mi
8:00 AM79 °FSunny.5 mph26%29.98 "Hg10 mi
7:30 AM79 °FSunny.No wind21%29.98 "Hg10 mi
6:30 AM72 °FClear.5 mph41%29.98 "Hg10 mi
Weather by CustomWeather, © 2016

See weather overviewHow to use our weather pages